DAL874 KBOI-KATL

Flight info

Callsign DAL874
Flight time N/A
Altitude 35000
Route ROARR AMFAL OCS KD63W HUSQA KK51C WEITT KK42G MEMFS HUTCC KNSAW RUSSA GLAVN2
Aircraft B739/M-SDE2E3FGHIRWXY/LB1

Departure

Time N/A
Airport Boise Air Terminal/Gowen Field (KBOI)

Arrival

Time 2026-05-05 02:12
Airport Hartsfield Jackson Atlanta International Airport (KATL)
Time Latitude Longitude Altitude Speed Heading
2026-05-05 01:23 35.25557 -90.44564 34875 ft 570 kts 122°
2026-05-05 01:23 35.21321 -90.36374 34907 ft 569 kts 122°
2026-05-05 01:24 35.17082 -90.28199 34883 ft 570 kts 122°
2026-05-05 01:24 35.12835 -90.20024 34889 ft 569 kts 122°
2026-05-05 01:25 35.08589 -90.11872 34888 ft 569 kts 122°
2026-05-05 01:25 35.04344 -90.03725 34899 ft 568 kts 120°
2026-05-05 01:26 35.01100 -89.95009 34926 ft 561 kts 102°
2026-05-05 01:26 34.99590 -89.85790 34921 ft 552 kts 92°
2026-05-05 01:27 34.98400 -89.76535 34903 ft 552 kts 92°
2026-05-05 01:27 34.97152 -89.67290 34907 ft 553 kts 93°
2026-05-05 01:28 34.95847 -89.58044 34909 ft 554 kts 93°
2026-05-05 01:28 34.94516 -89.48776 34913 ft 556 kts 93°
2026-05-05 01:29 34.93406 -89.41070 34918 ft 556 kts 93°
2026-05-05 01:29 34.92066 -89.31785 34927 ft 558 kts 94°
2026-05-05 01:30 34.90713 -89.22449 34942 ft 559 kts 94°
2026-05-05 01:30 34.89356 -89.13149 34935 ft 558 kts 94°
2026-05-05 01:31 34.87992 -89.03849 34917 ft 557 kts 94°
2026-05-05 01:31 34.86624 -88.94575 34927 ft 555 kts 94°
2026-05-05 01:32 34.85255 -88.85347 34962 ft 553 kts 94°
2026-05-05 01:32 34.83889 -88.76177 34931 ft 550 kts 94°
2026-05-05 01:33 34.82521 -88.67053 34926 ft 546 kts 94°
2026-05-05 01:33 34.81156 -88.57989 34927 ft 542 kts 94°
2026-05-05 01:34 34.79792 -88.48986 34931 ft 540 kts 94°
2026-05-05 01:34 34.78430 -88.40031 34945 ft 538 kts 95°
2026-05-05 01:35 34.77066 -88.31113 34933 ft 535 kts 95°
2026-05-05 01:35 34.75700 -88.22231 34938 ft 533 kts 95°
2026-05-05 01:36 34.74333 -88.13381 34942 ft 532 kts 95°
2026-05-05 01:36 34.72963 -88.04551 34967 ft 532 kts 95°
2026-05-05 01:37 34.71593 -87.95769 34927 ft 533 kts 95°
2026-05-05 01:37 34.70202 -87.86905 34943 ft 534 kts 95°
2026-05-05 01:38 34.68806 -87.78041 34963 ft 535 kts 95°
2026-05-05 01:38 34.67397 -87.69144 34994 ft 537 kts 96°
2026-05-05 01:39 34.65976 -87.60217 34968 ft 539 kts 96°
2026-05-05 01:39 34.64547 -87.51287 34958 ft 539 kts 96°
2026-05-05 01:40 34.63115 -87.42374 34957 ft 538 kts 96°
2026-05-05 01:40 34.61521 -87.33488 34956 ft 538 kts 98°
2026-05-05 01:41 34.59844 -87.24655 34976 ft 536 kts 98°
2026-05-05 01:41 34.58201 -87.15842 34973 ft 534 kts 98°
2026-05-05 01:42 34.56592 -87.07065 34977 ft 531 kts 97°
2026-05-05 01:42 34.55160 -86.98304 34974 ft 528 kts 96°
2026-05-05 01:43 34.53544 -86.89615 34993 ft 530 kts 103°
2026-05-05 01:43 34.51196 -86.81133 34985 ft 531 kts 106°
2026-05-05 01:44 34.48872 -86.72656 34979 ft 529 kts 104°
2026-05-05 01:44 34.46664 -86.64167 34989 ft 528 kts 104°
2026-05-05 01:45 34.44451 -86.55690 35010 ft 527 kts 104°
2026-05-05 01:45 34.42230 -86.47238 34956 ft 527 kts 104°
2026-05-05 01:46 34.40003 -86.38797 35006 ft 526 kts 104°
2026-05-05 01:46 34.37769 -86.30347 35006 ft 527 kts 104°
2026-05-05 01:47 34.35527 -86.21894 34725 ft 534 kts 104°
2026-05-05 01:47 34.34383 -86.17580 34011 ft 540 kts 105°
2026-05-05 01:47 34.33237 -86.13272 33392 ft 534 kts 105°
2026-05-05 01:48 34.32127 -86.09038 33002 ft 523 kts 105°
2026-05-05 01:48 34.31047 -86.04872 32573 ft 514 kts 105°
2026-05-05 01:48 34.29990 -86.00771 32073 ft 508 kts 106°
2026-05-05 01:48 34.28940 -85.96700 31452 ft 504 kts 106°
2026-05-05 01:49 34.27899 -85.92673 30793 ft 502 kts 107°
2026-05-05 01:49 34.26857 -85.88659 30137 ft 499 kts 107°
2026-05-05 01:49 34.25818 -85.84671 29428 ft 495 kts 108°
2026-05-05 01:49 34.24784 -85.80714 28603 ft 493 kts 108°
2026-05-05 01:50 34.23754 -85.76781 27904 ft 488 kts 108°
2026-05-05 01:50 34.22737 -85.72900 27320 ft 482 kts 108°
2026-05-05 01:50 34.21729 -85.69063 26748 ft 476 kts 108°
2026-05-05 01:50 34.20733 -85.65271 26157 ft 470 kts 108°
2026-05-05 01:51 34.19750 -85.61533 25560 ft 466 kts 108°
2026-05-05 01:51 34.18771 -85.57818 24975 ft 462 kts 108°
2026-05-05 01:51 34.17800 -85.54140 24415 ft 457 kts 108°
2026-05-05 01:51 34.16839 -85.50503 23877 ft 452 kts 108°
2026-05-05 01:52 34.15889 -85.46909 23299 ft 448 kts 108°
2026-05-05 01:52 34.14946 -85.43346 22675 ft 443 kts 108°
2026-05-05 01:52 34.14010 -85.39817 22084 ft 439 kts 108°
2026-05-05 01:52 34.13096 -85.36331 21506 ft 434 kts 108°
2026-05-05 01:53 34.12205 -85.32889 20818 ft 425 kts 108°
2026-05-05 01:53 34.11330 -85.29495 19941 ft 423 kts 108°
2026-05-05 01:53 34.10458 -85.26117 19124 ft 420 kts 109°
2026-05-05 01:53 34.09591 -85.22773 18391 ft 415 kts 109°
2026-05-05 01:54 34.08736 -85.19480 17594 ft 409 kts 109°
2026-05-05 01:54 34.07900 -85.16270 16849 ft 403 kts 109°
2026-05-05 01:54 34.07056 -85.13028 16073 ft 398 kts 109°
2026-05-05 01:54 34.06239 -85.09900 15337 ft 393 kts 109°
2026-05-05 01:55 34.05394 -85.06781 14620 ft 388 kts 114°
2026-05-05 01:55 34.03985 -85.04077 14336 ft 378 kts 134°
2026-05-05 01:55 34.02098 -85.01950 14238 ft 364 kts 142°
2026-05-05 01:55 34.00194 -85.00025 14131 ft 350 kts 143°
2026-05-05 01:56 33.98329 -84.98155 13747 ft 348 kts 142°
2026-05-05 01:56 33.96462 -84.96256 13483 ft 359 kts 142°
2026-05-05 01:56 33.94539 -84.94277 13187 ft 369 kts 141°
2026-05-05 01:56 33.92570 -84.92237 12879 ft 373 kts 141°
2026-05-05 01:57 33.90613 -84.90204 12557 ft 370 kts 141°
2026-05-05 01:57 33.88664 -84.88186 12260 ft 368 kts 141°
2026-05-05 01:57 33.86731 -84.86185 12039 ft 365 kts 141°
2026-05-05 01:57 33.84803 -84.84193 12001 ft 365 kts 141°
2026-05-05 01:58 33.82884 -84.82210 11988 ft 364 kts 141°
2026-05-05 01:58 33.80967 -84.80229 11988 ft 364 kts 141°
2026-05-05 01:58 33.79045 -84.78246 11991 ft 364 kts 141°
2026-05-05 01:58 33.77117 -84.76257 11986 ft 365 kts 141°
2026-05-05 01:59 33.75213 -84.74258 11986 ft 365 kts 137°
2026-05-05 01:59 33.73777 -84.71733 11994 ft 369 kts 114°
2026-05-05 01:59 33.73192 -84.68742 11993 ft 370 kts 94°
2026-05-05 01:59 33.73199 -84.65705 11991 ft 356 kts 89°
2026-05-05 02:00 33.73251 -84.62804 11981 ft 339 kts 90°
2026-05-05 02:00 33.73282 -84.60044 11984 ft 323 kts 90°
2026-05-05 02:00 33.73296 -84.57403 11987 ft 309 kts 91°
2026-05-05 02:00 33.73300 -84.54890 11984 ft 295 kts 91°
2026-05-05 02:01 33.73300 -84.52479 11992 ft 281 kts 91°
2026-05-05 02:01 33.73300 -84.50195 11986 ft 267 kts 91°
2026-05-05 02:01 33.73299 -84.47980 11960 ft 262 kts 91°
2026-05-05 02:01 33.73298 -84.45822 11704 ft 257 kts 91°
2026-05-05 02:02 33.73296 -84.43659 11206 ft 259 kts 91°
2026-05-05 02:02 33.73296 -84.41501 10713 ft 258 kts 91°
2026-05-05 02:02 33.73296 -84.39363 10215 ft 257 kts 91°
2026-05-05 02:02 33.73297 -84.37209 9709 ft 256 kts 91°
2026-05-05 02:03 33.73297 -84.35085 9221 ft 253 kts 91°
2026-05-05 02:03 33.73296 -84.32979 8735 ft 250 kts 91°
2026-05-05 02:03 33.73295 -84.30898 8258 ft 248 kts 92°
2026-05-05 02:03 33.73296 -84.28838 7783 ft 246 kts 92°
2026-05-05 02:04 33.73299 -84.26794 7329 ft 243 kts 92°
2026-05-05 02:04 33.73301 -84.24772 6881 ft 241 kts 92°
2026-05-05 02:04 33.73304 -84.22767 6424 ft 239 kts 92°
2026-05-05 02:04 33.73306 -84.20775 6017 ft 238 kts 92°
2026-05-05 02:05 33.73307 -84.18801 5642 ft 234 kts 93°
2026-05-05 02:05 33.73309 -84.16907 5479 ft 221 kts 93°
2026-05-05 02:05 33.73247 -84.15081 5249 ft 209 kts 107°
2026-05-05 02:05 33.72578 -84.13679 5027 ft 190 kts 144°
2026-05-05 02:06 33.71403 -84.13093 4851 ft 183 kts 172°
2026-05-05 02:06 33.70142 -84.12867 4650 ft 184 kts 174°
2026-05-05 02:06 33.68876 -84.12716 4440 ft 183 kts 185°
2026-05-05 02:06 33.67741 -84.13309 4221 ft 182 kts 224°
2026-05-05 02:07 33.67113 -84.14626 4096 ft 185 kts 245°
2026-05-05 02:07 33.66629 -84.16053 4047 ft 184 kts 244°
2026-05-05 02:07 33.66137 -84.17489 4017 ft 183 kts 244°
2026-05-05 02:07 33.65657 -84.18885 4022 ft 184 kts 244°
2026-05-05 02:08 33.65167 -84.20311 4024 ft 185 kts 245°
2026-05-05 02:08 33.64956 -84.21834 4004 ft 189 kts 269°
2026-05-05 02:08 33.64989 -84.23452 3811 ft 194 kts 265°
2026-05-05 02:08 33.64978 -84.25068 3558 ft 192 kts 265°
2026-05-05 02:09 33.64974 -84.26661 3330 ft 191 kts 265°
2026-05-05 02:09 33.64972 -84.28257 3104 ft 191 kts 266°
2026-05-05 02:09 33.64976 -84.29840 2830 ft 188 kts 265°
2026-05-05 02:09 33.64970 -84.31365 2584 ft 175 kts 264°
2026-05-05 02:10 33.64963 -84.32742 2412 ft 156 kts 265°
2026-05-05 02:10 33.64960 -84.33978 2143 ft 144 kts 265°
2026-05-05 02:10 33.64969 -84.35167 1920 ft 140 kts 264°
2026-05-05 02:10 33.64966 -84.36334 1732 ft 139 kts 264°
2026-05-05 02:11 33.64957 -84.37492 1544 ft 138 kts 266°
2026-05-05 02:11 33.64960 -84.38638 1381 ft 140 kts 268°
2026-05-05 02:11 33.64957 -84.39434 1272 ft 142 kts 268°
2026-05-05 02:11 33.64958 -84.40614 1092 ft 140 kts 269°
2026-05-05 02:12 33.64953 -84.41758 1006 ft 126 kts 270°
2026-05-05 02:12 33.64954 -84.42841 1005 ft 25 kts 270°
2026-05-05 02:12 33.64954 -84.43040 1005 ft 23 kts 266°
2026-05-05 02:13 33.64913 -84.43222 1006 ft 22 kts 249°
2026-05-05 02:13 33.64850 -84.43381 1005 ft 20 kts 257°
2026-05-05 02:13 33.64825 -84.43523 1006 ft 14 kts 231°
2026-05-05 02:13 33.64790 -84.43553 1006 ft 0 kts 205°
2026-05-05 02:14 33.64769 -84.43566 1006 ft 9 kts 206°
2026-05-05 02:15 33.64695 -84.43616 1005 ft 13 kts 210°
2026-05-05 02:15 33.64618 -84.43670 1005 ft 13 kts 210°
2026-05-05 02:15 33.64548 -84.43637 1006 ft 12 kts 112°
2026-05-05 02:15 33.64542 -84.43536 1006 ft 12 kts 89°
2026-05-05 02:16 33.64541 -84.43435 1006 ft 12 kts 90°
2026-05-05 02:16 33.64541 -84.43322 1006 ft 15 kts 90°
2026-05-05 02:16 33.64543 -84.43184 1006 ft 17 kts 90°
2026-05-05 02:16 33.64542 -84.43044 1006 ft 16 kts 90°
2026-05-05 02:17 33.64541 -84.42910 1006 ft 16 kts 90°
2026-05-05 02:17 33.64521 -84.42787 1005 ft 15 kts 137°
2026-05-05 02:17 33.64425 -84.42796 1005 ft 15 kts 198°
2026-05-05 02:17 33.64326 -84.42806 1005 ft 14 kts 180°
2026-05-05 02:18 33.64232 -84.42806 1005 ft 13 kts 180°
2026-05-05 02:18 33.64150 -84.42807 1005 ft 11 kts 180°
2026-05-05 02:18 33.64111 -84.42846 1005 ft 6 kts 271°
2026-05-05 02:18 33.64114 -84.42872 1005 ft 2 kts 281°
2026-05-05 02:19 33.64115 -84.42875 1005 ft 0 kts 281°